sat.trackr.live / text

‹ back to catalog

COSMOS 2526

NORAD 43432 · 2018-037A

PAYLOAD ACTIVE UNKNOWN

§ Identity

Operator
Country
CIS
Launch date
2018-04-18
Launch site
TYMSC
Launch vehicle
Mass (kg)
RCS (m²)

Purposes: comms

External: N2YO · Heavens-Above · Gunter

§ Orbital elements

Epoch: 2026-09-14T22:57:58.542912Z

Period
1,436.06 min
Inclination
0.0099°
Eccentricity
0.0000623
Mean motion
1.00274482 rev/d
Perigee alt
35,783.2 km
Apogee alt
35,788.5 km
Semi-major
42,164.0 km
B*
0.0000e+0
RAAN
168.8088°
Arg perigee
73.5817°
Mean anomaly
224.0927°
Rev number
3,086

§ Raw data

COSMOS 25261 43432U 18037A   26257.95692758 -.00000351  00000+0  00000+0 0  99962 43432   0.0099 168.8088 0000623  73.5817 224.0927  1.00274482 30868

JSON: /api/v1/satellites/43432 · /tle

For live sub-satellite position, see the globe view (requires WebGL).

§ Visibility from observer

Set your observer location to see the next 7 days of passes ≥ 10°. The values pass through the URL so the page stays shareable.

No JS? Fill the form by hand. The geolocation button needs JavaScript.